This is the latest recevied weather packets stored in our database for station/object W2TAO. If no packets are shown the sender has not sent any weather packets the latest 10 day(s).
| Time | Temp. | Humidity | Pressure | Rain* | Wind** | Luminosity | Snow |
|---|---|---|---|---|---|---|---|
| 1777485966 | 14.44° C | 63% | 1014.1 hPa | 0 mm | - | 208 W/m² | - |
| 1777485662 | 14.44° C | 63% | 1014.2 hPa | 0 mm | - | 234 W/m² | - |
| 1777485357 | 14.44° C | 64% | 1014.2 hPa | 0 mm | - | 225 W/m² | - |
| 1777485054 | 14.44° C | 64% | 1014.1 hPa | 0 mm | - | 186 W/m² | - |
| 1777484751 | 13.89° C | 65% | 1014.2 hPa | 0 mm | - | 187 W/m² | - |
| 1777484447 | 13.89° C | 65% | 1014.3 hPa | 0 mm | - | 167 W/m² | - |
| 1777484144 | 14.44° C | 65% | 1014.3 hPa | 0 mm | - | 203 W/m² | - |
| 1777483840 | 13.89° C | 65% | 1014.3 hPa | 0 mm | - | 217 W/m² | - |
| 1777483537 | 14.44° C | 65% | 1014.1 hPa | 0 mm | - | 242 W/m² | - |
| 1777483237 | 13.89° C | 65% | 1014.4 hPa | 0 mm | - | 237 W/m² | - |
| 1777482933 | 13.89° C | 66% | 1014.7 hPa | 0 mm | - | 166 W/m² | - |
| 1777482629 | 13.89° C | 67% | 1014.6 hPa | 0 mm | - | 160 W/m² | - |
| 1777482327 | 13.89° C | 65% | 1014.7 hPa | 0 mm | - | 174 W/m² | - |
| 1777482024 | 13.89° C | 65% | 1014.8 hPa | 0 mm | - | 124 W/m² | - |
| 1777481721 | 13.89° C | 66% | 1015 hPa | 0 mm | - | 111 W/m² | - |
| 1777481419 | 13.89° C | 68% | 1014.9 hPa | 0 mm | - | 115 W/m² | - |
| 1777481115 | 13.89° C | 66% | 1014.8 hPa | 0 mm | - | 122 W/m² | - |
| 1777480811 | 13.89° C | 65% | 1015.1 hPa | 0 mm | - | 154 W/m² | - |
| 1777480509 | 13.89° C | 64% | 1015.1 hPa | 0 mm | - | 184 W/m² | - |
| 1777480205 | 13.89° C | 65% | 1015 hPa | 0 mm | - | 217 W/m² | - |
| 1777479901 | 13.89° C | 66% | 1015.3 hPa | 0 mm | - | 172 W/m² | - |
| 1777479598 | 13.89° C | 66% | 1015.2 hPa | 0 mm | - | 150 W/m² | - |
| 1777479296 | 13.89° C | 67% | 1015.3 hPa | 0 mm | - | 138 W/m² | - |
| 1777478992 | 13.33° C | 66% | 1015.4 hPa | 0 mm | - | 101 W/m² | - |
| 1777478689 | 13.33° C | 66% | 1015.5 hPa | 0 mm | - | 94 W/m² | - |
* Rain latest hour (hover to see other rain measurements)
** Current wind speed in m/s (hover to see current wind gust speed)